Time,TemperatureF,DewpointF,PressureIn,WindDirection,WindDirectionDegrees,WindSpeedMPH,WindSpeedGustMPH,Humidity,HourlyPrecipIn,Conditions,Clouds,dailyrainin,SolarRadiationWatts/m^2,SoftwareType,DateUTC
2013-09-04 00:03:00,73.8,63.0,29.88,SSE,155,0.0,-999.0,68,-99.99,,,0.00,0,weatherlink.com 1.10,2013-09-04 07:03:00,
2013-09-04 00:18:00,73.5,62.0,29.88,SSE,155,0.0,-999.0,68,-99.99,,,0.00,0,weatherlink.com 1.10,2013-09-04 07:18:00,
2013-09-04 00:33:00,72.8,62.0,29.88,SSE,155,0.0,-999.0,70,-99.99,,,0.00,0,weatherlink.com 1.10,2013-09-04 07:33:00,
2013-09-04 00:48:00,72.3,63.0,29.89,SSE,155,0.0,-999.0,73,-99.99,,,0.00,0,weatherlink.com 1.10,2013-09-04 07:48:00,
2013-09-04 01:03:00,71.9,62.0,29.88,SSE,155,0.0,-999.0,71,-99.99,,,0.00,0,weatherlink.com 1.10,2013-09-04 08:03:00,
2013-09-04 01:18:00,71.3,61.0,29.88,SSE,155,0.0,-999.0,71,-99.99,,,0.00,0,weatherlink.com 1.10,2013-09-04 08:18:00,
2013-09-04 01:33:00,71.1,61.0,29.88,SSE,155,0.0,-999.0,71,-99.99,,,0.00,0,weatherlink.com 1.10,2013-09-04 08:33:00,
2013-09-04 01:48:00,70.6,61.0,29.88,SSE,155,0.0,-999.0,72,-99.99,,,0.00,0,weatherlink.com 1.10,2013-09-04 08:48:00,
2013-09-04 02:03:00,70.3,61.0,29.88,SSE,155,0.0,-999.0,72,-99.99,,,0.00,0,weatherlink.com 1.10,2013-09-04 09:03:00,
2013-09-04 02:19:00,69.9,60.0,29.88,SSE,155,0.0,-999.0,71,-99.99,,,0.00,0,weatherlink.com 1.10,2013-09-04 09:19:00,
2013-09-04 02:34:00,69.6,60.0,29.87,SSE,155,0.0,-999.0,72,-99.99,,,0.00,0,weatherlink.com 1.10,2013-09-04 09:34:00,
2013-09-04 02:49:00,69.1,59.0,29.87,SSE,155,0.0,-999.0,71,-99.99,,,0.00,0,weatherlink.com 1.10,2013-09-04 09:49:00,
2013-09-04 03:04:00,68.9,60.0,29.87,SSE,155,0.0,-999.0,72,-99.99,,,0.00,0,weatherlink.com 1.10,2013-09-04 10:04:00,
2013-09-04 03:19:00,68.7,60.0,29.87,SSE,155,0.0,-999.0,73,-99.99,,,0.00,0,weatherlink.com 1.10,2013-09-04 10:19:00,
2013-09-04 03:34:00,68.6,60.0,29.87,SSE,155,0.0,-999.0,73,-99.99,,,0.00,0,weatherlink.com 1.10,2013-09-04 10:34:00,
2013-09-04 03:49:00,68.1,60.0,29.87,SSE,155,0.0,-999.0,74,-99.99,,,0.00,0,weatherlink.com 1.10,2013-09-04 10:49:00,
2013-09-04 04:04:00,67.9,60.0,29.87,SSE,155,0.0,-999.0,75,-99.99,,,0.00,0,weatherlink.com 1.10,2013-09-04 11:04:00,
2013-09-04 04:19:00,67.5,59.0,29.88,SSE,155,0.0,-999.0,75,-99.99,,,0.00,0,weatherlink.com 1.10,2013-09-04 11:19:00,
2013-09-04 04:34:00,67.1,59.0,29.88,SSE,155,0.0,-999.0,75,-99.99,,,0.00,0,weatherlink.com 1.10,2013-09-04 11:34:00,
2013-09-04 04:49:00,67.1,59.0,29.88,SSE,155,0.0,-999.0,76,-99.99,,,0.00,0,weatherlink.com 1.10,2013-09-04 11:49:00,
2013-09-04 05:04:00,67.2,59.0,29.88,SSE,148,0.0,-999.0,76,-99.99,,,0.00,0,weatherlink.com 1.10,2013-09-04 12:04:00,
2013-09-04 05:19:00,67.0,59.0,29.88,SSE,148,0.0,-999.0,76,-99.99,,,0.00,0,weatherlink.com 1.10,2013-09-04 12:19:00,
2013-09-04 05:34:00,67.0,60.0,29.88,SSE,148,0.0,-999.0,77,-99.99,,,0.00,0,weatherlink.com 1.10,2013-09-04 12:34:00,
2013-09-04 05:49:00,66.8,59.0,29.88,SSE,148,0.0,-999.0,75,-99.99,,,0.00,0,weatherlink.com 1.10,2013-09-04 12:49:00,
2013-09-04 06:04:00,66.5,58.0,29.88,SSE,148,0.0,-999.0,75,-99.99,,,0.00,0,weatherlink.com 1.10,2013-09-04 13:04:00,
2013-09-04 06:19:00,66.4,58.0,29.88,SSE,148,0.0,-999.0,75,-99.99,,,0.00,0,weatherlink.com 1.10,2013-09-04 13:19:00,
2013-09-04 06:34:00,66.5,59.0,29.89,SSE,148,0.0,-999.0,76,-99.99,,,0.00,5,weatherlink.com 1.10,2013-09-04 13:34:00,
2013-09-04 06:49:00,66.6,58.0,29.89,SSE,148,0.0,-999.0,75,-99.99,,,0.00,12,weatherlink.com 1.10,2013-09-04 13:49:00,
2013-09-04 07:04:00,66.8,59.0,29.89,SSE,148,0.0,-999.0,75,-99.99,,,0.00,47,weatherlink.com 1.10,2013-09-04 14:04:00,
2013-09-04 07:19:00,67.7,60.0,29.90,SSE,148,0.0,-999.0,75,-99.99,,,0.00,90,weatherlink.com 1.10,2013-09-04 14:19:00,
2013-09-04 07:34:00,68.8,60.0,29.90,SSE,148,0.0,-999.0,73,-99.99,,,0.00,141,weatherlink.com 1.10,2013-09-04 14:34:00,
2013-09-04 07:49:00,70.5,60.0,29.90,SSE,148,0.0,-999.0,70,-99.99,,,0.00,199,weatherlink.com 1.10,2013-09-04 14:49:00,
2013-09-04 08:04:00,73.3,61.0,29.90,SE,141,0.0,-999.0,65,-99.99,,,0.00,243,weatherlink.com 1.10,2013-09-04 15:04:00,
2013-09-04 08:19:00,75.6,62.0,29.90,SE,141,0.0,-999.0,62,-99.99,,,0.00,292,weatherlink.com 1.10,2013-09-04 15:19:00,
2013-09-04 08:34:00,78.5,63.0,29.90,ESE,108,0.0,-999.0,60,-99.99,,,0.00,341,weatherlink.com 1.10,2013-09-04 15:34:00,
2013-09-04 08:49:00,81.4,64.0,29.89,East,98,0.0,-999.0,56,-99.99,,,0.00,388,weatherlink.com 1.10,2013-09-04 15:49:00,
2013-09-04 09:05:00,83.8,65.0,29.89,NW,305,0.0,-999.0,54,-99.99,,,0.00,431,weatherlink.com 1.10,2013-09-04 16:05:00,
2013-09-04 09:20:00,85.2,66.0,29.89,NW,314,1.0,-999.0,52,-99.99,,,0.00,476,weatherlink.com 1.10,2013-09-04 16:20:00,
2013-09-04 09:35:00,86.9,66.0,29.89,NW,318,0.0,-999.0,50,-99.99,,,0.00,519,weatherlink.com 1.10,2013-09-04 16:35:00,
2013-09-04 09:50:00,88.4,66.0,29.89,NNW,331,3.0,-999.0,48,-99.99,,,0.00,557,weatherlink.com 1.10,2013-09-04 16:50:00,
2013-09-04 10:20:00,91.2,66.0,29.89,WSW,251,3.0,-999.0,44,-99.99,,,0.00,626,weatherlink.com 1.10,2013-09-04 17:20:00,
2013-09-04 10:35:00,92.1,66.0,29.89,WNW,302,2.0,-999.0,42,-99.99,,,0.00,659,weatherlink.com 1.10,2013-09-04 17:35:00,
2013-09-04 10:50:00,93.2,67.0,29.88,WNW,297,0.0,-999.0,42,-99.99,,,0.00,687,weatherlink.com 1.10,2013-09-04 17:50:00,
2013-09-04 11:05:00,93.8,66.0,29.88,WSW,253,4.0,-999.0,40,-99.99,,,0.00,708,weatherlink.com 1.10,2013-09-04 18:05:00,
2013-09-04 11:20:00,94.4,67.0,29.88,WNW,287,3.0,-999.0,40,-99.99,,,0.00,729,weatherlink.com 1.10,2013-09-04 18:20:00,
2013-09-04 11:35:00,95.6,68.0,29.88,WSW,254,1.0,-999.0,40,-99.99,,,0.00,749,weatherlink.com 1.10,2013-09-04 18:35:00,
2013-09-04 11:50:00,95.5,68.0,29.88,WSW,254,5.0,-999.0,41,-99.99,,,0.00,761,weatherlink.com 1.10,2013-09-04 18:50:00,
2013-09-04 12:05:00,96.2,67.0,29.87,WSW,256,0.0,-999.0,38,-99.99,,,0.00,772,weatherlink.com 1.10,2013-09-04 19:05:00,
2013-09-04 12:20:00,96.6,68.0,29.87,NNW,341,0.0,-999.0,39,-99.99,,,0.00,779,weatherlink.com 1.10,2013-09-04 19:20:00,
2013-09-04 12:35:00,97.8,67.0,29.86,WNW,297,0.0,-999.0,37,-99.99,,,0.00,786,weatherlink.com 1.10,2013-09-04 19:35:00,
2013-09-04 12:50:00,98.0,68.0,29.85,NNW,342,0.0,-999.0,37,-99.99,,,0.00,784,weatherlink.com 1.10,2013-09-04 19:50:00,
2013-09-04 13:06:00,98.8,68.0,29.86,West,259,2.0,-999.0,36,-99.99,,,0.00,779,weatherlink.com 1.10,2013-09-04 20:06:00,
2013-09-04 13:21:00,99.5,67.0,29.86,West,269,2.0,-999.0,34,-99.99,,,0.00,773,weatherlink.com 1.10,2013-09-04 20:21:00,
2013-09-04 13:36:00,99.6,65.0,29.85,WSW,246,4.0,-999.0,32,-99.99,,,0.00,763,weatherlink.com 1.10,2013-09-04 20:36:00,
2013-09-04 13:51:00,100.1,64.0,29.85,WNW,299,0.0,-999.0,31,-99.99,,,0.00,749,weatherlink.com 1.10,2013-09-04 20:51:00,
2013-09-04 14:06:00,100.2,64.0,29.85,WNW,289,0.0,-999.0,30,-99.99,,,0.00,733,weatherlink.com 1.10,2013-09-04 21:06:00,
2013-09-04 14:21:00,99.9,64.0,29.84,NNW,333,0.0,-999.0,31,-99.99,,,0.00,710,weatherlink.com 1.10,2013-09-04 21:21:00,
2013-09-04 14:36:00,100.7,63.0,29.84,West,269,2.0,-999.0,29,-99.99,,,0.00,684,weatherlink.com 1.10,2013-09-04 21:36:00,
2013-09-04 14:51:00,99.8,60.0,29.83,NW,322,1.0,-999.0,27,-99.99,,,0.00,657,weatherlink.com 1.10,2013-09-04 21:51:00,
2013-09-04 15:06:00,99.4,60.0,29.83,SW,236,3.0,-999.0,27,-99.99,,,0.00,628,weatherlink.com 1.10,2013-09-04 22:06:00,
2013-09-04 15:21:00,99.7,61.0,29.83,WSW,252,4.0,-999.0,28,-99.99,,,0.00,591,weatherlink.com 1.10,2013-09-04 22:21:00,
2013-09-04 15:36:00,99.6,61.0,29.83,NW,321,0.0,-999.0,28,-99.99,,,0.00,557,weatherlink.com 1.10,2013-09-04 22:36:00,
2013-09-04 15:51:00,99.9,60.0,29.83,West,275,1.0,-999.0,27,-99.99,,,0.00,517,weatherlink.com 1.10,2013-09-04 22:51:00,
2013-09-04 16:06:00,100.0,60.0,29.82,WNW,291,6.0,-999.0,27,-99.99,,,0.00,475,weatherlink.com 1.10,2013-09-04 23:06:00,
2013-09-04 16:21:00,99.6,60.0,29.82,West,269,4.0,-999.0,27,-99.99,,,0.00,432,weatherlink.com 1.10,2013-09-04 23:21:00,
2013-09-04 16:36:00,98.7,60.0,29.83,WSW,244,3.0,-999.0,28,-99.99,,,0.00,385,weatherlink.com 1.10,2013-09-04 23:36:00,
2013-09-04 16:51:00,98.0,59.0,29.82,WNW,301,1.0,-999.0,27,-99.99,,,0.00,350,weatherlink.com 1.10,2013-09-04 23:51:00,
2013-09-04 17:06:00,97.8,60.0,29.82,WSW,250,3.0,-999.0,28,-99.99,,,0.00,306,weatherlink.com 1.10,2013-09-05 00:06:00,
2013-09-04 17:21:00,96.4,59.0,29.82,WSW,257,1.0,-999.0,29,-99.99,,,0.00,264,weatherlink.com 1.10,2013-09-05 00:21:00,
2013-09-04 17:36:00,95.4,58.0,29.83,WNW,285,0.0,-999.0,29,-99.99,,,0.00,125,weatherlink.com 1.10,2013-09-05 00:36:00,
2013-09-04 17:51:00,94.6,59.0,29.82,NW,308,2.0,-999.0,30,-99.99,,,0.00,114,weatherlink.com 1.10,2013-09-05 00:51:00,
2013-09-04 18:06:00,93.4,59.0,29.82,West,273,3.0,-999.0,31,-99.99,,,0.00,33,weatherlink.com 1.10,2013-09-05 01:06:00,
2013-09-04 18:21:00,92.1,58.0,29.82,NW,309,0.0,-999.0,32,-99.99,,,0.00,26,weatherlink.com 1.10,2013-09-05 01:21:00,
2013-09-04 18:36:00,91.2,58.0,29.82,WSW,246,2.0,-999.0,33,-99.99,,,0.00,18,weatherlink.com 1.10,2013-09-05 01:36:00,
2013-09-04 18:51:00,90.5,59.0,29.83,WSW,251,0.0,-999.0,34,-99.99,,,0.00,12,weatherlink.com 1.10,2013-09-05 01:51:00,
2013-09-04 19:06:00,89.8,59.0,29.82,WSW,255,0.0,-999.0,35,-99.99,,,0.00,5,weatherlink.com 1.10,2013-09-05 02:06:00,
2013-09-04 19:21:00,89.2,59.0,29.83,WSW,257,0.0,-999.0,36,-99.99,,,0.00,0,weatherlink.com 1.10,2013-09-05 02:21:00,
2013-09-04 19:36:00,88.1,60.0,29.83,WSW,257,0.0,-999.0,39,-99.99,,,0.00,0,weatherlink.com 1.10,2013-09-05 02:36:00,
2013-09-04 19:51:00,87.1,61.0,29.83,WSW,257,0.0,-999.0,41,-99.99,,,0.00,0,weatherlink.com 1.10,2013-09-05 02:51:00,
2013-09-04 20:06:00,86.5,62.0,29.84,WSW,257,0.0,-999.0,44,-99.99,,,0.00,0,weatherlink.com 1.10,2013-09-05 03:06:00,
2013-09-04 20:21:00,85.7,62.0,29.84,WSW,257,0.0,-999.0,45,-99.99,,,0.00,0,weatherlink.com 1.10,2013-09-05 03:21:00,
2013-09-04 20:36:00,84.4,58.0,29.85,WSW,257,0.0,-999.0,41,-99.99,,,0.00,0,weatherlink.com 1.10,2013-09-05 03:36:00,
2013-09-04 20:51:00,83.7,60.0,29.86,WSW,257,0.0,-999.0,44,-99.99,,,0.00,0,weatherlink.com 1.10,2013-09-05 03:51:00,
2013-09-04 21:06:00,83.0,62.0,29.86,WSW,257,0.0,-999.0,49,-99.99,,,0.00,0,weatherlink.com 1.10,2013-09-05 04:06:00,
2013-09-04 21:21:00,82.5,61.0,29.86,WSW,257,0.0,-999.0,48,-99.99,,,0.00,0,weatherlink.com 1.10,2013-09-05 04:21:00,
2013-09-04 21:36:00,81.8,60.0,29.87,WSW,257,0.0,-999.0,48,-99.99,,,0.00,0,weatherlink.com 1.10,2013-09-05 04:36:00,
2013-09-04 21:51:00,81.0,61.0,29.87,South,172,0.0,-999.0,50,-99.99,,,0.00,0,weatherlink.com 1.10,2013-09-05 04:51:00,
2013-09-04 22:06:00,80.2,61.0,29.88,SSE,155,1.0,-999.0,53,-99.99,,,0.00,0,weatherlink.com 1.10,2013-09-05 05:06:00,
2013-09-04 22:21:00,79.2,62.0,29.88,SSE,155,0.0,-999.0,55,-99.99,,,0.00,0,weatherlink.com 1.10,2013-09-05 05:21:00,
2013-09-04 22:36:00,78.4,61.0,29.88,SSE,155,0.0,-999.0,56,-99.99,,,0.00,0,weatherlink.com 1.10,2013-09-05 05:36:00,
2013-09-04 22:51:00,77.7,62.0,29.88,SSE,155,0.0,-999.0,58,-99.99,,,0.00,0,weatherlink.com 1.10,2013-09-05 05:51:00,
2013-09-04 23:06:00,77.0,62.0,29.88,SSE,155,0.0,-999.0,61,-99.99,,,0.00,0,weatherlink.com 1.10,2013-09-05 06:06:00,
2013-09-04 23:21:00,76.3,63.0,29.87,SSE,155,0.0,-999.0,63,-99.99,,,0.00,0,weatherlink.com 1.10,2013-09-05 06:21:00,
2013-09-04 23:36:00,75.7,62.0,29.87,SSE,155,0.0,-999.0,63,-99.99,,,0.00,0,weatherlink.com 1.10,2013-09-05 06:36:00,
2013-09-04 23:51:00,75.0,62.0,29.88,SSE,155,0.0,-999.0,65,-99.99,,,0.00,0,weatherlink.com 1.10,2013-09-05 06:51:00,